Zurück zum Katalog

STARLINK-32486

AktivKommunikationVLEO
NORAD 61854·PAYLOAD·🇺🇸 United States

Gestartet Nov 7, 2024 von Cape Canaveral Space Force Station

Loading…

Nächste Überflüge (nächste 24 Stunden)

TLE

AktuellSource: CelesTrak SupGP

Epoche: Sep 14, 2026, 21:44 UTC

1 61854C 24202K   26257.90604167  .00029139  00000+0  10558-2 0  2570
2 61854  42.9992 249.1709 0001414 263.9905 267.4405 15.27553459    12

Verfolge STARLINK-32486 in Echtzeit mit AllMySat

Download on the App Store